Hourly Data Report for April 21, 2002

SHERBROOKE A
QUEBEC

45°26'00.000" N
71°41'00.000" W
241.40 m
7028124
71610
YSC

Download Data

Hourly Data (April 2002)
Hourly Data Report for April 21, 2002
TIME
LST
Temp Definition
°C
Dew Point Definition
°C
Rel Hum Definition
%
Precip. Amount Definition
mm

Wind Dir Definition
10's deg

Wind Spd Definition
km/h
Visibility Definition
km
Stn Press Definition
kPa
Hmdx Definition


Wind Chill Definition


Weather Definition


00:00 -1.9 -9.6 56   31 9 15.0 98.47   -5  
01:00 -2.0 -9.6 56   30 11 15.0 98.48   -6  
02:00 -2.4 -9.6 58   33 6 15.0 98.49   -5  
03:00 -2.7 -10.2 56   30 7 15.0 98.52   -6  
04:00 -3.0 -10.4 57   33 9 15.0 98.55   -7  
05:00 -3.2 -11.9 51   33 15 15.0 98.61   -8  
06:00 -3.8 -13.1 48   32 17 15.0 98.69   -10  
07:00 -3.7 -13.7 46   30 20 24.1 98.73   -10 Mostly Cloudy
08:00 -2.8 -13.8 42   31 22 24.1 98.71   -9 Mostly Cloudy
09:00 -0.9 -11.9 43   30 22 24.1 98.74   -7 Mainly Clear
10:00 -0.7 -12.5 40   29 20 24.1 98.76   -6 Mainly Clear
11:00 -0.8 -12.5 41   31 20 24.1 98.76   -6 Mostly Cloudy
12:00 0.1 -10.8 44   30 17 24.1 98.77     Mostly Cloudy
13:00 1.9 -10.4 40   29 22 24.1 98.76     Mainly Clear
14:00 0.9 -10.7 42   30 26 24.1 98.75     Mostly Cloudy
15:00 2.2 -10.4 39   30 19 24.1 98.73     Mainly Clear
16:00 1.4 -10.9 39   31 17 24.1 98.75     Mainly Clear
17:00 1.7 -10.3 40   29 17 15.0 98.75      
18:00 1.0 -11.1 40   30 17 15.0 98.75      
19:00 -0.8 -11.0 46   30 7 15.0 98.81   -3  
20:00 -1.2 -11.0 47   35 6 15.0 98.89   -3  
21:00 -2.0 -10.9 51   4 6 15.0 98.87   -4  
22:00 -3.3 -9.6 62   4 4 15.0 98.82   -5  
23:00 -5.0 -8.8 75     0 15.0 98.81      

Notes on Data Quality.

Legend

  • E = Estimated
  • M = Missing
  • NA = Not Available*
  • [empty] = Indicates an unobserved value
Date modified: